SL-8 DEB, 1392

Orbit data source: Space-Track

SL-8 DEB, 1392 is space debris in LEO originally from a launch on Mon, 15 Mar 1965 UTC launched from the Tyuratam Missile And Space Complex (TTMTR). Debris objects in space refer to the collection of defunct objects orbiting the Earth. Examples of debris include non-operational satellites, rocket bodies, and fragments generated from explosions, collisions, or faulty payload assembly.

Loading next visibility...
Identifier
1392, 1965-020AH
Orbit
LEO
Country
Flag of CISCIS
Related business
Manufacturer
Unknown
Mission
Spacecraft
Bus & Motor
Unknown
Mass
Unknown
Launch date (UTC)
1965-03-15 (61 years ago)
Launch vehicle
Unknown
Launch site
Tyuratam Missile And Space Complex (TTMTR)
Object type
Payload
Rocket body
Debris
Shape & HBR
Unknown shape, 0.2 m
Radar Cross Section
Medium (>0.1 m² and <1 m²)

Expand to show TLE details & history
Last TLE update: 6 days ago

TLE from 6 days ago
0 SL-8 DEB
1 01392U 65020AH  26155.29051765  .00035848  00000-0  13623-2 0  9997
2 01392  55.8585 277.8422 0133436  29.4566 331.3898 15.18570458 94177
Epoch: 2026-06-04T06:58Z
TLE epoch observation values (Epoch: 2026-06-04T06:58:20.724Z)
Latitude
-0.00007°
Longitude
-79.4811°
Altitude
430.933 km
Speed
7.699 km/s
True Right ascension
18h 31m 22s
True Declination
0° 00' 00"
Sunlit
Object was in full shadow at epoch
Visualization orbit readout
Latitude
Unknown
Longitude
Unknown
Altitude
Unknown
Speed
Unknown
Apparent Right ascension
Unknown
Apparent Declination
Unknown
Sunlit
N/A
Visualization observer readout
Local Sidereal Time
13:56:16
Azimuth
Unknown
Elevation
Unknown
Doppler factor
Unknown
Orbital elements
Apogee altitude
601.901 km
Perigee altitude
418.076 km
Semi-major axis
6,888.125 km
Eccentricity
0.01334
Inclination
55.8585°
RAAN
277.8422°
Arg. of periapsis
29.4566°
True anomaly
330.64676°
Mean anomaly
331.3898°
Eccentric anomaly
331.01937°
Mean motion
3.79657 °/min
Orbital period
94.82 mins
BSTAR
0.0013623
Loading maneuver chart data...
Computing Atmospheric mass density...
Loading historical data...
Loading historical data...
Loading historical data...
Loading historical data...
Loading historical data...
Loading historical data...
Loading historical data...

Documentation

Showing up to 5 results
|